Flag for Cambodia Weather past 2 weeks in Battambang, Cambodia

Now
86 °F

Clear.


Feels Like: 102 °F
Forecast: 77 / 93 °F
Wind: No wind

Location: Siemreap

Current Time: Sep 19, 2014 at 11:28:02 PM

Latest Report: Sep 19, 2014 at 11:00 PM


Visibility: 6 mi

Pressure: 29.77 "Hg

Humidity: 84%

Dew point: 81 °F

Location of BattambangLocation

Historic Weather in Battambang — Graph

°F

Battambang temperature yesterday

Maximum temperature yesterday: 90 °F (at 2:30 PM)
Minimum temperature yesterday: 81 °F (at 12:00 AM)
Average temperature yesterday: 85 °F

Past Weeks' High & Low Weather Summary

 TemperatureHumidityPressure
High91 °F (Sep 8, 3:30 PM)94% (Sep 5, 7:30 AM)29.86 "Hg (Sep 5, 7:30 AM)
Low73 °F (Sep 5, 7:30 AM)55% (Sep 15, 3:30 PM)29.53 "Hg (Sep 16, 1:30 PM)
Average83 °F77%29.72 "Hg
* Reported Sep 4 10:00 PM — Sep 19 10:30 PM, Battambang, Weather by CustomWeather, © 2014

Note: Actual official high and low records may vary slightly from our data, if they occured in-between our weather recording intervals... More about our weather records

Advertising

Battambang weather history for previous 24 hours

 ConditionsComfort  
Time TempWeatherWind HumidityBarometerVisibility
10:30 PM
Sep 19
86 °FClear.No wind84%29.77 "Hg6 mi
10:00 PM86 °FClear.No wind84%29.77 "Hg6 mi
9:30 PM86 °FClear.No wind79%29.77 "Hg6 mi
9:00 PM86 °FClear.No wind79%29.77 "Hg6 mi
8:30 PM86 °FClear.No wind79%29.74 "Hg6 mi
8:00 PM88 °FClear.No wind66%29.74 "Hg6 mi
7:30 PM88 °FClear.No wind66%29.74 "Hg6 mi
7:00 PM88 °FClear.No wind66%29.74 "Hg6 mi
6:30 PM88 °FPassing clouds.3 mph66%29.71 "HgN/A
6:00 PM90 °FPassing clouds.3 mph63%29.71 "HgN/A
5:30 PM90 °FPassing clouds.5 mph59%29.71 "HgN/A
5:00 PM90 °FPassing clouds.6 mph59%29.68 "HgN/A
4:30 PM91 °FScattered clouds.5 mph59%29.68 "HgN/A
4:00 PM90 °FScattered clouds.6 mph59%29.71 "HgN/A
3:30 PM90 °FScattered clouds.6 mph59%29.71 "HgN/A
3:00 PM90 °FScattered clouds.6 mph63%29.71 "HgN/A
2:30 PM90 °FScattered clouds.6 mph63%29.74 "HgN/A
2:00 PM90 °FScattered clouds.6 mph63%29.74 "HgN/A
1:30 PM90 °FScattered clouds.6 mph63%29.77 "HgN/A
12:30 PM88 °FScattered clouds.7 mph66%29.80 "HgN/A
12:00 PM88 °FScattered clouds.6 mph66%29.83 "HgN/A
11:30 AM88 °FScattered clouds.5 mph66%29.83 "HgN/A
11:00 AM88 °FScattered clouds.7 mph66%29.83 "HgN/A
9:30 AM86 °FPassing clouds.7 mph70%29.86 "HgN/A
9:00 AM84 °FPassing clouds.8 mph74%29.86 "HgN/A
8:30 AM84 °FPassing clouds.7 mph74%29.86 "HgN/A
8:00 AM82 °FPassing clouds.6 mph79%29.86 "HgN/A
7:30 AM81 °FPassing clouds.6 mph84%29.83 "HgN/A
7:00 AM81 °FPassing clouds.6 mph84%29.83 "HgN/A
12:30 AM81 °FPassing clouds.6 mph89%29.83 "Hg6 mi
12:00 AM81 °FPassing clouds.6 mph89%29.83 "Hg6 mi
11:30 PM
Sep 18
81 °FPassing clouds.6 mph89%29.86 "Hg6 mi
11:00 PM82 °FPassing clouds.6 mph79%29.86 "Hg6 mi
Weather by CustomWeather, © 2014

See weather overviewHow to use our weather pages